Weather in Zarechnoye

Russia / The Kabardino-Balkar Republic     43°56′10″N   43°51′25″E
temp.,
°C
wind,
m/s
gust,
m/s
humid.,
%
clouds,
%
prec.,
mm/h
press.,
hPa
HPBL,
m
3 august, tue
tue300:00+22sse11670 0.0 101111
03:00+21w12730 0.0 101111
06:00+22w22710 0.0 101223
09:00+29wnw01450 0.0 1012601
12:00+33nne22290 0.0 10111716
15:00+35ne22210 0.0 10102668
18:00+33s23320 0.0 101054
21:00+25sw33470 0.0 101138
4 august, wed
wed400:00+24w34460 0.0 101242
03:00+23wsw22490 0.0 101217
06:00+23wsw22530 0.0 101331
09:00+31nw35371 0.0 1013784
12:00+34nw44310 0.0 10131801
15:00+35nw332528 0.0 10112885
18:00+33nw1134100 0.0 101114
21:00+27sw5947100 0.0 1013192
5 august, thu
thu500:00+25wnw3451100 0.0 101366
03:00+22wnw3568100 0.2 101378
06:00+21nw47739 0.0 1015195
09:00+28nw214927 0.0 1015557
12:00+32e34355 0.0 10131611
15:00+34e3430100 0.0 10112575
18:00+33sse233620 0.0 1011200
21:00+26sw22545 0.0 101120
6 august, fri
fri600:00+25n11520 0.0 101111
03:00+23n22570 0.0 101021
06:00+22n12590 0.0 101024
09:00+29e23430 0.0 1010582
12:00+34ese46320 0.0 10081550
15:00+36se67290 0.0 10062001
18:00+35ese34314 0.0 1005168
21:00+27e5113476 0.0 1006265
7 august, sat
sat700:00+24e3944100 0.0 1006175
03:00+22ene116075 0.0 100513
06:00+21n2270100 0.0 100552
09:00+28ne11495 0.0 1005552
12:00+34ne21327 0.0 10041178
15:00+37e112434 0.0 10031790
18:00+33wsw3434100 0.0 100362
21:00+27wnw81458100 0.1 1006397